Location: Unspecified
(0.0000°N, 0.0000°E)
Time: 13:31:52
(UTC+00:00)

LightSail 2 - Pass Details

Date: 26 March 2020
Orbit: 693 x 726 km, 24.0° (Epoch: 02 April)

Event Time Altitude Azimuth Distance (km) Brightness Sun altitude
Exits shadow 05:02:11 16° 224° (SW) 1,781 6.8 -15.8°
Maximum altitude 05:06:00 46° 155° (SSE) 927 5.9 -14.9°
Drops below altitude 10° 05:10:53 10° 82° (E) 2,158 9.1 -13.7°
Sets 05:13:24 0° 76° (ENE) 3,081 10.2 -13.0°
